This is the latest recevied weather packets stored in our database for station/object WC4PEM-14. If no packets are shown the sender has not sent any weather packets the latest 10 day(s).
| Time | Temp. | Humidity | Pressure | Rain* | Wind** | Luminosity | Snow |
|---|---|---|---|---|---|---|---|
| 1777753394 | 20.56° C | 91% | 1010.7 hPa | 2.54 mm | - | - | - |
| 1777753294 | 20.56° C | 90% | 1010.6 hPa | 2.54 mm | - | - | - |
| 1777753094 | 20.56° C | 90% | 1010.6 hPa | 2.54 mm | - | - | - |
| 1777753003 | 20.56° C | 90% | 1010.1 hPa | 2.54 mm | - | - | - |
| 1777752794 | 20.56° C | 90% | 1010.1 hPa | 2.54 mm | - | - | - |
| 1777752687 | 20.56° C | 89% | 1011.3 hPa | 2.54 mm | - | - | - |
| 1777752494 | 20.56° C | 89% | 1011.3 hPa | 2.54 mm | - | - | - |
| 1777752460 | 21.11° C | 86% | 1011.8 hPa | 1.27 mm | - | - | - |
| 1777752194 | 21.11° C | 86% | 1011.8 hPa | 1.27 mm | - | - | - |
| 1777751894 | 23.33° C | 77% | 1011.5 hPa | 0 mm | - | - | - |
| 1777751594 | 25.56° C | 66% | 1011.2 hPa | 0 mm | - | - | - |
| 1777751294 | 26.11° C | 67% | 1011.1 hPa | 0 mm | - | - | - |
| 1777750994 | 28.33° C | 73% | 1010.7 hPa | 0 mm | - | - | - |
| 1777750694 | 28.33° C | 73% | 1010 hPa | 0 mm | - | - | - |
| 1777750394 | 28.33° C | 72% | 1010.1 hPa | 0 mm | - | - | - |
| 1777750323 | 28.33° C | 71% | 1010 hPa | 0 mm | - | - | - |
| 1777750094 | 28.33° C | 71% | 1010 hPa | 0 mm | - | - | - |
| 1777749829 | 28.89° C | 69% | 1009.9 hPa | 0 mm | - | - | - |
| 1777749794 | 28.33° C | 71% | 1009.9 hPa | 0 mm | - | - | - |
| 1777749494 | 28.89° C | 70% | 1009.7 hPa | 0 mm | - | - | - |
| 1777749194 | 28.89° C | 69% | 1009.9 hPa | 0 mm | - | - | - |
| 1777749152 | 28.89° C | 68% | 1010.2 hPa | 0 mm | - | - | - |
| 1777748894 | 28.89° C | 68% | 1010.2 hPa | 0 mm | - | - | - |
| 1777748712 | 28.89° C | 67% | 1010.1 hPa | 0 mm | - | - | - |
| 1777748594 | 28.89° C | 67% | 1010.1 hPa | 0 mm | - | - | - |
* Rain latest hour (hover to see other rain measurements)
** Current wind speed in m/s (hover to see current wind gust speed)